Location: Ab? ar R?sh Ba?r?
(24.1861°N, 32.8847°E)
Time: 00:16:48
(UTC+00:00)

CZ-4B R/B - Pass Details

Date: 24 October 2021
Orbit: 808 x 882 km, 99.1° (Epoch: 05 December)

Event Time Altitude Azimuth Distance (km) Brightness Sun altitude
Rises 16:37:46 0° 181° (S) 3,443 6.5 -19.6°
Reaches altitude 10° 16:40:14 10° 188° (S) 2,515 5.8 -20.2°
Maximum altitude 16:45:33 44° 259° (W) 1,190 4.4 -21.4°
Drops below altitude 10° 16:50:57 10° 331° (NNW) 2,540 6.0 -22.6°
Sets 16:53:28 0° 338° (NNW) 3,480 6.6 -23.2°
